Location: Briis
(48.6240°N, 2.1211°E)
Time: 07:45:45
(UTC+00:00)

Okean 1-7 - Pass Details

Date: 25 September 2020
Orbit: 591 x 618 km, 82.5° (Epoch: 22 October)

Event Time Altitude Azimuth Distance (km) Brightness Sun altitude
Rises 04:59:44 0° 191° (S) 2,820 6.3 -7.9°
Reaches altitude 10° 05:01:55 10° 192° (SSW) 1,921 5.4 -7.6°
Maximum altitude 05:06:10 79° 280° (W) 609 2.9 -6.9°
Drops below altitude 10° 05:10:27 10° 7° (N) 1,935 5.8 -6.2°
Sets 05:12:40 0° 9° (N) 2,842 6.7 -5.8°
